Weather History for MRLB - March, 2013

Change the Weather History Date:

Saturday, March 9, 2013

  Actual Average Record
Temperature  
Mean Temperature 84 °F -  
Max Temperature 94 °F 92 °F 100 °F (1998)
Min Temperature 73 °F 75 °F 66 °F (2006)
Cooling Degree Days 18    
Growing Degree Days 34 (Base 50)    
Moisture  
Dew Point 64 °F    
Average Humidity 48    
Maximum Humidity 69    
Minimum Humidity 30    
Precipitation  
Precipitation 0.00 in - - ()
Sea Level Pressure  
Sea Level Pressure 29.81 in    
Wind  
Wind Speed 12 mph ()    
Max Wind Speed 24 mph    
Max Gust Speed 32 mph    
Visibility 12.0 miles    
Events      
Averages and records for this station are not official NWS values.
T = Trace of Precipitation, MM = Missing Value Source: Averaged Metar Reports

Daily Weather History Graph

Daily Weather History Graph

Search for Another Location

Airport or City:

Trip Planner

Search our weather history database for the weather conditions in past years. The results will help you decide how hot, cold, wet, or windy it might be!

Date:

Astronomy

Mar. 09, 2013 Rise Set
Actual Time 5:52 AM CST 5:52 PM CST
Civil Twilight 5:31 AM CST 6:13 PM CST
Nautical Twilight 5:06 AM CST 6:38 PM CST
Astronomical Twilight 4:42 AM CST 7:02 PM CST
Moon 3:57 AM CST (3/9) 4:07 PM CST (3/9)
Length of Visible Light 12h 42m
Length of Day
12h 00m
Waning Crescent, 5% of the Moon is Illuminated
Mar 9
Waning Crescent
Mar 11
New
Mar 19
First Quarter
Mar 27
Full
Apr 2
Last Quarter

Hourly Weather History & Observations

Time (CST) Temp. Heat Index Dew Point Humidity Pressure Visibility Wind Dir Wind Speed Gust Speed Precip Events Conditions
6:00 AM 74 °F - 65 °F 66% 29.83 in 12 mi SW 6.9 mph - -   Clear
6:00 AM 75.2 °F - 64.4 °F 69% 29.82 in - SW 6.9 mph - N/A   Clear
7:00 AM 77.0 °F - 64.4 °F 65% 29.84 in - WSW 5.8 mph - N/A   Clear
8:00 AM 82.4 °F 83.9 °F 64.4 °F 54% 29.86 in - NW 6.9 mph - N/A   Clear
9:00 AM 87 °F - 64 °F 37% 29.88 in 12 mi East 13.8 mph - -  
9:00 AM 87.8 °F 89.4 °F 64.4 °F 46% 29.86 in - East 13.8 mph - N/A   Clear
10:00 AM 89.6 °F 90.1 °F 62.6 °F 40% 29.86 in - ENE 19.6 mph 31.1 mph N/A   Clear
11:00 AM 91.4 °F 92.1 °F 62.6 °F 38% 29.84 in - ENE 24.2 mph - N/A   Clear
12:00 PM 91 °F - 64 °F 30% 29.83 in 12 mi East 19.6 mph - -  
12:00 PM 91.4 °F 93.2 °F 64.4 °F 41% 29.81 in - East 19.6 mph - N/A   Clear
1:00 PM 91.4 °F 92.1 °F 62.6 °F 38% 29.79 in - ENE 20.7 mph 32.2 mph N/A   Clear
1:54 PM 93.2 °F 94.1 °F 62.6 °F 36% 29.77 in - ENE 21.9 mph - N/A   Clear
2:00 PM 93.2 °F 94.1 °F 62.6 °F 36% 29.77 in - ENE 21.9 mph - N/A   Clear
3:00 PM 91.4 °F 92.1 °F 62.6 °F 38% 29.76 in - ENE 20.7 mph - N/A   Clear
4:00 PM 91.4 °F 92.1 °F 62.6 °F 38% 29.75 in - East 17.3 mph - N/A   Clear
5:00 PM 87.8 °F 89.4 °F 64.4 °F 46% 29.75 in - ENE 20.7 mph - N/A   Clear
6:00 PM 82 °F - 65 °F 47% 29.78 in 12 mi East 19.6 mph - -   Clear
6:00 PM 82.4 °F 83.9 °F 64.4 °F 54% 29.76 in - East 19.6 mph - N/A   Clear
7:00 PM 80.6 °F 82.3 °F 64.4 °F 58% 29.79 in - East 15.0 mph - N/A   Clear
8:00 PM 82.4 °F 83.9 °F 64.4 °F 54% 29.81 in - East 13.8 mph - N/A   Clear
9:00 PM 80.6 °F 82.3 °F 64.4 °F 58% 29.83 in - East 11.5 mph - N/A   Clear
10:00 PM 78.8 °F - 64.4 °F 61% 29.85 in - ENE 8.1 mph - N/A   Clear
11:00 PM 78.8 °F - 64.4 °F 61% 29.84 in - ENE 12.7 mph - N/A   Clear